| time (UTC) | temp F | wind direction | speed knots | gust knots | rain 1hr in | rain 24hr in | rain mn in | humidity % | barometer mb |
| 20260504220500 | 60 | 43 | 0.9 | 2.6 | 0.00 | 0.00 | 0.00 | 36 | 903.4 |
| 20260504215957 | 59 | 339 | 2.6 | 3.5 | 0.00 | 0.00 | 0.00 | 36 | 903.7 |
| 20260504215453 | 59 | 44 | 1.7 | 2.6 | 0.00 | 0.00 | 0.00 | 37 | 903.2 |
| 20260504214950 | 59 | 55 | 1.7 | 2.6 | 0.00 | 0.00 | 0.00 | 36 | 903.7 |
| 20260504214446 | 59 | 33 | 4.3 | 5.2 | 0.00 | 0.00 | 0.00 | 37 | 903.6 |
| 20260504213943 | 59 | 339 | 6.1 | 7.8 | 0.00 | 0.00 | 0.00 | 36 | 903.5 |
| 20260504213439 | 59 | 344 | 6.1 | 7.8 | 0.00 | 0.00 | 0.00 | 36 | 903.6 |
| 20260504212937 | 60 | 0 | 7.0 | 8.7 | 0.00 | 0.00 | 0.00 | 36 | 903.7 |
| 20260504212432 | 60 | 321 | 3.5 | 5.2 | 0.00 | 0.00 | 0.00 | 36 | 903.8 |
| 20260504211930 | 60 | 266 | 1.7 | 2.6 | 0.00 | 0.00 | 0.00 | 35 | 903.8 |
| 20260504211426 | 60 | 347 | 2.6 | 3.5 | 0.00 | 0.00 | 0.00 | 36 | 903.9 |
| 20260504210924 | 60 | 3 | 7.8 | 8.7 | 0.00 | 0.00 | 0.00 | 35 | 903.9 |
| 20260504210421 | 61 | 330 | 4.3 | 4.3 | 0.00 | 0.00 | 0.00 | 34 | 903.9 |
| 20260504205918 | 61 | 301 | 4.3 | 5.2 | 0.00 | 0.00 | 0.00 | 34 | 903.8 |
| 20260504205416 | 60 | 9 | 5.2 | 7.0 | 0.00 | 0.00 | 0.00 | 36 | 903.7 |
| 20260504204914 | 60 | 46 | 3.5 | 4.3 | 0.00 | 0.00 | 0.00 | 36 | 903.8 |
| 20260504204412 | 61 | 355 | 7.0 | 8.7 | 0.00 | 0.00 | 0.00 | 35 | 903.8 |
| 20260504203911 | 60 | 33 | 5.2 | 7.0 | 0.00 | 0.00 | 0.00 | 36 | 903.8 |
| 20260504203408 | 61 | 15 | 13.0 | 13.9 | 0.00 | 0.00 | 0.00 | 36 | 903.9 |
| 20260504202903 | 61 | 18 | 7.8 | 8.7 | 0.00 | 0.00 | 0.00 | 36 | 903.9 |
| 20260504202400 | 60 | 8 | 7.0 | 8.7 | 0.00 | 0.00 | 0.00 | 35 | 903.9 |
| 20260504201857 | 60 | 11 | 3.5 | 3.5 | 0.00 | 0.00 | 0.00 | 34 | 903.8 |
| 20260504201354 | 61 | 353 | 3.5 | 4.3 | 0.00 | 0.00 | 0.00 | 35 | 904.0 |
| 20260504200852 | 61 | 28 | 2.6 | 4.3 | 0.00 | 0.00 | 0.00 | 35 | 904.0 |
| 20260504200348 | 61 | 41 | 0.9 | 0.9 | 0.00 | 0.00 | 0.00 | 35 | 903.8 |
| 20260504195845 | 61 | 8 | 2.6 | 4.3 | 0.00 | 0.00 | 0.00 | 35 | 903.9 |
| 20260504195340 | 60 | 29 | 4.3 | 7.8 | 0.00 | 0.00 | 0.00 | 35 | 904.1 |
| 20260504194837 | 60 | 30 | 8.7 | 11.3 | 0.00 | 0.00 | 0.00 | 35 | 904.1 |
| 20260504194333 | 61 | 15 | 5.2 | 7.8 | 0.00 | 0.00 | 0.00 | 35 | 903.8 |
| 20260504193829 | 60 | 12 | 9.6 | 11.3 | 0.00 | 0.00 | 0.00 | 35 | 903.9 |
| 20260504193327 | 61 | 5 | 9.6 | 11.3 | 0.00 | 0.00 | 0.00 | 36 | 903.8 |
| 20260504192826 | 61 | 31 | 12.2 | 17.4 | 0.00 | 0.00 | 0.00 | 35 | 904.1 |
| 20260504192323 | 62 | 16 | 9.6 | 13.9 | 0.00 | 0.00 | 0.00 | 33 | 903.7 |
| 20260504191821 | 62 | 358 | 10.4 | 12.2 | 0.00 | 0.00 | 0.00 | 35 | 903.8 |
| 20260504191319 | 61 | 9 | 10.4 | 13.9 | 0.00 | 0.00 | 0.00 | 34 | 903.7 |
| 20260504190814 | 61 | 26 | 5.2 | 7.0 | 0.00 | 0.00 | 0.00 | 34 | 903.8 |
| 20260504190310 | 62 | 19 | 20.0 | 26.1 | 0.00 | 0.00 | 0.00 | 33 | 903.7 |
| 20260504185807 | 62 | 11 | 8.7 | 9.6 | 0.00 | 0.00 | 0.00 | 33 | 903.5 |
| 20260504185304 | 62 | 21 | 8.7 | 12.2 | 0.00 | 0.00 | 0.00 | 33 | 903.6 |
| 20260504184800 | 63 | 11 | 13.0 | 13.9 | 0.00 | 0.00 | 0.00 | 34 | 903.4 |
| 20260504184256 | 62 | 19 | 10.4 | 16.5 | 0.00 | 0.00 | 0.00 | 32 | 903.5 |
| 20260504183752 | 62 | 14 | 12.2 | 13.0 | 0.00 | 0.00 | 0.00 | 34 | 903.6 |
| 20260504183249 | 62 | 0 | 13.9 | 16.5 | 0.00 | 0.00 | 0.00 | 32 | 903.6 |
| 20260504182747 | 63 | 13 | 15.6 | 20.0 | 0.00 | 0.00 | 0.00 | 32 | 903.2 |
| 20260504182244 | 63 | 29 | 13.0 | 15.6 | 0.00 | 0.00 | 0.00 | 32 | 903.8 |
| 20260504181741 | 62 | 17 | 15.6 | 18.2 | 0.00 | 0.00 | 0.00 | 32 | 903.5 |
| 20260504181238 | 62 | 25 | 19.1 | 24.3 | 0.00 | 0.00 | 0.00 | 33 | 903.6 |
| 20260504180738 | 61 | 14 | 16.5 | 20.0 | 0.00 | 0.00 | 0.00 | 34 | 903.5 |
| 20260504180236 | 64 | 11 | 13.0 | 18.2 | 0.00 | 0.00 | 0.00 | 32 | 903.4 |
| 20260504175733 | 63 | 16 | 15.6 | 22.6 | 0.00 | 0.00 | 0.00 | 31 | 903.4 |
| 20260504175230 | 64 | 5 | 13.0 | 17.4 | 0.00 | 0.00 | 0.00 | 30 | 903.5 |
| 20260504174728 | 64 | 17 | 13.0 | 21.7 | 0.00 | 0.00 | 0.00 | 29 | 903.5 |
| 20260504174225 | 63 | 3 | 13.0 | 18.2 | 0.00 | 0.00 | 0.00 | 28 | 903.5 |
| 20260504173721 | 63 | 28 | 13.9 | 16.5 | 0.00 | 0.00 | 0.00 | 28 | 903.7 |
| 20260504173219 | 62 | 28 | 13.0 | 17.4 | 0.00 | 0.00 | 0.00 | 29 | 903.2 |
| 20260504172715 | 63 | 12 | 8.7 | 11.3 | 0.00 | 0.00 | 0.00 | 27 | 903.7 |
| 20260504172212 | 66 | 7 | 13.0 | 20.9 | 0.00 | 0.00 | 0.00 | 22 | 903.2 |
| 20260504171708 | 65 | 36 | 0.9 | 0.9 | 0.00 | 0.00 | 0.00 | 21 | 902.9 |
| 20260504171206 | 66 | 15 | 7.0 | 8.7 | 0.00 | 0.00 | 0.00 | 21 | 903.1 |
| 20260504170702 | 67 | 347 | 4.3 | 5.2 | 0.00 | 0.00 | 0.00 | 20 | 903.2 |
| 20260504170200 | 68 | 341 | 4.3 | 4.3 | 0.00 | 0.00 | 0.00 | 19 | 903.2 |
| 20260504160118 | 64 | 13 | 4.3 | 5.2 | 0.00 | 0.00 | 0.00 | 21 | 903.1 |
| 20260504151045 | 63 | 327 | 2.6 | 3.5 | 0.00 | 0.00 | 0.00 | 22 | 903.2 |
| 20260504150542 | 63 | 10 | 2.6 | 3.5 | 0.00 | 0.00 | 0.00 | 22 | 903.5 |
| 20260504141008 | 56 | 332 | 2.6 | 3.5 | 0.00 | 0.00 | 0.00 | 29 | 903.4 |
| 20260504140505 | 56 | 332 | 3.5 | 4.3 | 0.00 | 0.00 | 0.00 | 29 | 903.1 |
| 20260504130429 | 47 | 254 | 0.0 | 0.9 | 0.00 | 0.00 | 0.00 | 40 | 903.2 |
| 20260504110317 | 37 | 216 | 0.0 | 0.0 | 0.00 | 0.00 | 0.00 | 67 | 903.5 |
| 20260504100234 | 38 | 206 | 0.0 | 0.0 | 0.00 | 0.00 | 0.00 | 66 | 903.7 |
| 20260504081628 | 41 | 224 | 0.9 | 0.9 | 0.00 | 0.00 | 0.00 | 59 | 904.6 |
| 20260504081123 | 41 | 262 | 0.9 | 0.9 | 0.00 | 0.00 | 0.00 | 59 | 904.8 |
| 20260504080620 | 41 | 255 | 0.0 | 0.0 | 0.00 | 0.00 | 0.00 | 59 | 904.8 |
| 20260504080117 | 41 | 261 | 0.0 | 0.9 | 0.00 | 0.00 | 0.00 | 59 | 904.8 |
| 20260504050433 | 47 | 286 | 0.0 | 0.9 | 0.00 | 0.00 | 0.00 | 49 | 906.0 |
| 20260504045930 | 47 | 296 | 0.9 | 0.9 | 0.00 | 0.00 | 0.00 | 48 | 906.0 |
| 20260504045426 | 48 | 325 | 0.0 | 0.9 | 0.00 | 0.00 | 0.00 | 47 | 906.1 |
| 20260504044922 | 48 | 332 | 0.0 | 0.9 | 0.00 | 0.00 | 0.00 | 47 | 906.1 |
| 20260504044420 | 48 | 336 | 0.0 | 0.0 | 0.00 | 0.00 | 0.00 | 47 | 906.2 |
| 20260504043917 | 48 | 338 | 0.0 | 0.0 | 0.00 | 0.00 | 0.00 | 46 | 906.1 |
| 20260504043414 | 48 | 340 | 0.9 | 0.9 | 0.00 | 0.00 | 0.00 | 46 | 906.4 |
| 20260504042911 | 49 | 346 | 0.9 | 0.9 | 0.00 | 0.00 | 0.00 | 45 | 906.1 |
| 20260504042408 | 49 | 349 | 0.9 | 0.9 | 0.00 | 0.00 | 0.00 | 46 | 906.3 |
| 20260504041904 | 49 | 350 | 0.9 | 0.9 | 0.00 | 0.00 | 0.00 | 46 | 906.4 |
| 20260504041400 | 49 | 351 | 0.0 | 0.0 | 0.00 | 0.00 | 0.00 | 45 | 906.1 |
| 20260504040856 | 50 | 351 | 0.0 | 0.0 | 0.00 | 0.00 | 0.00 | 44 | 906.2 |
| 20260504040354 | 50 | 349 | 0.0 | 0.0 | 0.00 | 0.00 | 0.00 | 44 | 906.4 |
| 20260504035850 | 50 | 1 | 2.6 | 2.6 | 0.00 | 0.00 | 0.00 | 43 | 906.1 |
| 20260504035348 | 51 | 70 | 0.9 | 0.9 | 0.00 | 0.00 | 0.00 | 44 | 906.2 |
| 20260504034844 | 51 | 71 | 0.0 | 0.9 | 0.00 | 0.00 | 0.00 | 44 | 906.2 |
| 20260504034342 | 51 | 70 | 0.0 | 0.0 | 0.00 | 0.00 | 0.00 | 43 | 906.3 |
| 20260504033838 | 51 | 77 | 1.7 | 2.6 | 0.00 | 0.00 | 0.00 | 43 | 906.1 |
| 20260504033337 | 51 | 83 | 0.0 | 0.0 | 0.00 | 0.00 | 0.00 | 43 | 906.3 |
| 20260504032833 | 51 | 83 | 0.0 | 0.0 | 0.00 | 0.00 | 0.00 | 43 | 906.1 |
| 20260504032330 | 51 | 89 | 0.0 | 0.0 | 0.00 | 0.00 | 0.00 | 42 | 906.1 |
| 20260504031827 | 51 | 77 | 0.0 | 0.0 | 0.00 | 0.00 | 0.00 | 42 | 905.8 |
| 20260504031324 | 52 | 70 | 0.0 | 0.0 | 0.00 | 0.00 | 0.00 | 41 | 906.0 |
| 20260504030820 | 52 | 62 | 0.9 | 0.9 | 0.00 | 0.00 | 0.00 | 41 | 906.0 |
| 20260504030318 | 53 | 65 | 0.9 | 0.9 | 0.00 | 0.00 | 0.00 | 40 | 906.0 |
| 20260504025814 | 53 | 52 | 0.9 | 0.9 | 0.00 | 0.00 | 0.00 | 39 | 906.2 |
| 20260504025311 | 54 | 49 | 0.9 | 0.9 | 0.00 | 0.00 | 0.00 | 39 | 906.0 |
| 20260504024808 | 54 | 42 | 0.9 | 2.6 | 0.00 | 0.00 | 0.00 | 38 | 906.0 |
| 20260504024304 | 55 | 47 | 3.5 | 4.3 | 0.00 | 0.00 | 0.00 | 37 | 905.8 |
| 20260504023801 | 55 | 44 | 2.6 | 3.5 | 0.00 | 0.00 | 0.00 | 36 | 905.9 |
| 20260504023257 | 56 | 74 | 2.6 | 3.5 | 0.00 | 0.00 | 0.00 | 35 | 905.9 |
| 20260504022753 | 56 | 52 | 2.6 | 3.5 | 0.00 | 0.00 | 0.00 | 34 | 906.0 |
| 20260504022250 | 57 | 26 | 2.6 | 4.3 | 0.00 | 0.00 | 0.00 | 34 | 906.0 |
| 20260504021747 | 57 | 16 | 4.3 | 4.3 | 0.00 | 0.00 | 0.00 | 33 | 906.0 |
| 20260504021244 | 57 | 54 | 2.6 | 4.3 | 0.00 | 0.00 | 0.00 | 33 | 905.9 |
| 20260504020741 | 58 | 12 | 4.3 | 7.0 | 0.00 | 0.00 | 0.00 | 33 | 905.6 |
| 20260504020237 | 58 | 27 | 2.6 | 2.6 | 0.00 | 0.00 | 0.00 | 33 | 905.8 |
| 20260504015733 | 58 | 33 | 3.5 | 4.3 | 0.00 | 0.00 | 0.00 | 32 | 905.6 |
| 20260504015230 | 59 | 50 | 1.7 | 2.6 | 0.00 | 0.00 | 0.00 | 32 | 905.5 |
| 20260504014726 | 59 | 56 | 1.7 | 2.6 | 0.00 | 0.00 | 0.00 | 31 | 905.6 |
| 20260504014223 | 60 | 56 | 2.6 | 4.3 | 0.00 | 0.00 | 0.00 | 30 | 905.6 |
| 20260504013720 | 60 | 10 | 4.3 | 7.8 | 0.00 | 0.00 | 0.00 | 30 | 905.6 |
| 20260504013218 | 61 | 11 | 3.5 | 4.3 | 0.00 | 0.00 | 0.00 | 29 | 905.6 |
| 20260504012714 | 62 | 19 | 12.2 | 15.6 | 0.00 | 0.00 | 0.00 | 28 | 905.5 |
| 20260504012212 | 64 | 30 | 11.3 | 15.6 | 0.00 | 0.00 | 0.00 | 25 | 905.3 |
| 20260504011709 | 64 | 14 | 8.7 | 11.3 | 0.00 | 0.00 | 0.00 | 21 | 905.3 |
| 20260504011206 | 64 | 28 | 4.3 | 7.0 | 0.00 | 0.00 | 0.00 | 21 | 905.2 |
| 20260504010702 | 64 | 31 | 2.6 | 3.5 | 0.00 | 0.00 | 0.00 | 21 | 905.1 |
| 20260504010157 | 64 | 24 | 4.3 | 4.3 | 0.00 | 0.00 | 0.00 | 21 | 905.2 |
| 20260504005654 | 64 | 51 | 2.6 | 3.5 | 0.00 | 0.00 | 0.00 | 22 | 905.3 |
| 20260504005151 | 64 | 47 | 1.7 | 2.6 | 0.00 | 0.00 | 0.00 | 22 | 905.2 |
| 20260504004649 | 64 | 40 | 3.5 | 4.3 | 0.00 | 0.00 | 0.00 | 22 | 905.4 |
| 20260504004146 | 65 | 7 | 7.8 | 8.7 | 0.00 | 0.00 | 0.00 | 21 | 905.3 |
| 20260504003642 | 65 | 21 | 6.1 | 7.8 | 0.00 | 0.00 | 0.00 | 21 | 905.1 |
| 20260504003139 | 66 | 34 | 4.3 | 5.2 | 0.00 | 0.00 | 0.00 | 21 | 905.0 |
| 20260504002636 | 67 | 356 | 13.0 | 13.9 | 0.00 | 0.00 | 0.00 | 18 | 905.0 |
| 20260504002134 | 68 | 336 | 5.2 | 7.0 | 0.00 | 0.00 | 0.00 | 14 | 904.8 |
| 20260504001631 | 68 | 325 | 4.3 | 5.2 | 0.00 | 0.00 | 0.00 | 14 | 904.7 |
| 20260504001127 | 68 | 328 | 6.1 | 7.8 | 0.00 | 0.00 | 0.00 | 14 | 905.2 |
| 20260504000625 | 68 | 330 | 6.1 | 11.3 | 0.00 | 0.00 | 0.00 | 13 | 904.9 |
| 20260504000122 | 68 | 340 | 5.2 | 7.8 | 0.00 | 0.00 | 0.00 | 13 | 904.9 |
| 20260503235620 | 68 | 320 | 6.1 | 8.7 | 0.00 | 0.00 | 0.00 | 14 | 905.1 |
| 20260503235116 | 69 | 348 | 7.0 | 7.8 | 0.00 | 0.00 | 0.00 | 13 | 905.0 |
| 20260503234614 | 69 | 353 | 7.8 | 11.3 | 0.00 | 0.00 | 0.00 | 12 | 905.1 |
| 20260503234112 | 69 | 338 | 7.8 | 11.3 | 0.00 | 0.00 | 0.00 | 12 | 905.0 |
| 20260503233609 | 69 | 309 | 4.3 | 7.8 | 0.00 | 0.00 | 0.00 | 13 | 905.1 |
| 20260503233104 | 68 | 271 | 2.6 | 3.5 | 0.00 | 0.00 | 0.00 | 13 | 905.2 |
| 20260503232602 | 68 | 338 | 7.8 | 11.3 | 0.00 | 0.00 | 0.00 | 13 | 905.2 |
| 20260503232059 | 69 | 262 | 1.7 | 2.6 | 0.00 | 0.00 | 0.00 | 13 | 905.3 |
| 20260503231557 | 68 | 319 | 4.3 | 5.2 | 0.00 | 0.00 | 0.00 | 13 | 905.2 |
| 20260503231053 | 68 | 296 | 2.6 | 3.5 | 0.00 | 0.00 | 0.00 | 12 | 905.1 |
| 20260503230550 | 68 | 21 | 7.0 | 9.6 | 0.00 | 0.00 | 0.00 | 13 | 905.2 |
| 20260503230047 | 68 | 319 | 4.3 | 4.3 | 0.00 | 0.00 | 0.00 | 12 | 905.3 |
| 20260503225544 | 68 | 279 | 2.6 | 4.3 | 0.00 | 0.00 | 0.00 | 12 | 905.4 |
| 20260503225039 | 68 | 351 | 4.3 | 5.2 | 0.00 | 0.00 | 0.00 | 13 | 905.2 |
| 20260503224537 | 68 | 292 | 6.1 | 7.8 | 0.00 | 0.00 | 0.00 | 13 | 905.2 |
| 20260503224034 | 68 | 8 | 4.3 | 5.2 | 0.00 | 0.00 | 0.00 | 13 | 905.3 |
| 20260503223532 | 68 | 352 | 4.3 | 5.2 | 0.00 | 0.00 | 0.00 | 13 | 905.2 |
| 20260503223027 | 68 | 324 | 6.1 | 8.7 | 0.00 | 0.00 | 0.00 | 13 | 905.3 |
| 20260503222526 | 68 | 276 | 10.4 | 13.0 | 0.00 | 0.00 | 0.00 | 14 | 905.2 |
| 20260503222024 | 69 | 323 | 2.6 | 4.3 | 0.00 | 0.00 | 0.00 | 14 | 905.4 |
| 20260503221522 | 68 | 4 | 3.5 | 5.2 | 0.00 | 0.00 | 0.00 | 14 | 905.4 |
| 20260503221019 | 69 | 326 | 7.8 | 8.7 | 0.00 | 0.00 | 0.00 | 14 | 905.5 |